Regional Weather Roundup
Issued by NWS State College, PA

Home | Current Version | Previous Version | Graphics & Text | Print | Product List | Glossary On
Versions: 1 2 3 4 5 6 7 8 9 10 11 12 13 14 15 16 17 18 19 20 21 22 23 24 25 26 27 28 29 30 31 32 33 34 35 36 37 38 39 40 41 42 43 44 45 46 47 48 49 50
974
ASUS41 KCTP 080010
RWRCTP

REGIONAL WEATHER ROUNDUP
NATIONAL WEATHER SERVICE STATE COLLEGE PA
700 PM EST SUN FEB 07 2016

Note: "fair" indicates few or no clouds below 12,000 feet with no
significant weather and/or obstructions to visibility.

* = STATION THAT DOES NOT REPORT PRECIPITATION /E.G. RAIN...SNOW...ETC/
    THUNDER OR FOG.

PAZ002>004-007>009-013>016-020>023-029>032-080100-
WESTERN PENNSYLVANIA

CITY           SKY/WX    TMP DP  RH WIND       PRES   REMARKS
ERIE           CLOUDY    47  24  40 S8        29.86S
MEADVILLE      CLOUDY    44  23  43 VRB5      29.86F
FRANKLIN*      CLOUDY    39  21  48 S7        29.90F
NEW CASTLE     FAIR      44  23  43 S3        29.89F
BEAVER COUNTY  NOT AVBL
BUTLER*        CLEAR     43  19  39 S3        29.93F
PITTSBURGH INT MOCLDY    44  21  40 S3        29.90S
PITTSBURGH     CLOUDY    45  23  42 S6        29.90S
INDIANA*       PTCLDY    34  27  75 CALM      29.95S
LATROBE        CLEAR     36  25  64 S6        29.93S
WASHINGTON CO* CLEAR     37  23  56 CALM      29.91S
$$

PAZ004>006-010>012-017>019-024>028-033>037-041-042-045-046-049>053-080100-
CENTRAL PENNSYLVANIA

CITY           SKY/WX    TMP DP  RH WIND       PRES   REMARKS
BRADFORD       CLOUDY    34  23  64 CALM      29.90R
DUBOIS         CLOUDY    40  22  48 S5        29.90S
CLEARFIELD     CLOUDY    35  23  61 N8        29.92F
JOHNSTOWN      CLOUDY    39  20  46 CALM      29.89F
ALTOONA        CLEAR     34  22  61 CALM      29.92F
STATE COLLEGE  CLEAR     39  23  52 CALM      29.93F
WILLIAMSPORT   CLOUDY    35  24  64 CALM      29.96F
SELINSGROVE    CLOUDY    34  24  67 CALM      29.98R
FT INDIANTOWN  CLOUDY    33  24  68 N2        29.98R
CAPITAL CITY   CLOUDY    35  22  58 CALM      29.98R
HARRISBURG     CLOUDY    34  24  67 NW3       29.97S
YORK           CLOUDY    30  24  78 CALM      29.97S
$$

PAZ038>040-043-044-047-048-054-055-060>062-067>071-080100-
EASTERN PENNSYLVANIA

CITY           SKY/WX    TMP DP  RH WIND       PRES   REMARKS
SCRANTON       PTCLDY    39  22  50 E5        29.96S
MOUNT POCONO   CLOUDY    34  18  52 E3        29.94S
ALLENTOWN      CLOUDY    41  20  43 E5        29.99R
QUAKERTOWN*    CLOUDY    39  23  52 CALM      29.99F
READING        CLOUDY    41  17  38 NE3       29.97S
LANCASTER      CLOUDY    35  25  66 N3        29.97S
COATESVILLE    CLOUDY    37  23  56 CALM      29.97F
POTTSTOWN      CLOUDY    36  23  59 CALM      30.00S
BLUE BELL        N/A     36  25  64 CALM      29.97F
DOYLESTOWN     CLOUDY    37  20  50 CALM      29.98S
WILLOW GROVE   NOT AVBL
NORTH PHILA    MOCLDY    40  24  53 NE8       29.99F
PHILADELPHIA   MOCLDY    42  22  44 NE8       29.97F
$$




USA.gov is the U.S. government's official web portal to all federal, state and local government web resources and services.